Regional Weather Roundup
Issued by NWS

Home | Current Version | Previous Version | Text Only | Print | Product List | Glossary Off
Versions: 1 2 3 4 5 6 7 8 9 10 11 12 13 14 15 16 17 18 19 20 21 22 23 24 25 26 27

000
ASUS45 KTFX 091110
RWRMT
MONTANA REGIONAL WEATHER ROUNDUP
NATIONAL WEATHER SERVICE GREAT FALLS MT
400 AM MST FRI DEC 09 2016

NOTE: "FAIR" INDICATES FEW OR NO CLOUDS BELOW 12000 FEET WITH NO
SIGNIFICANT WEATHER AND/OR OBSTRUCTIONS TO VISIBILITY.

MTZ001>007-043-091200-
WEST OF THE DIVIDE

CITY           SKY/WX    TMP DP  RH WIND       PRES   REMARKS
KALISPELL      CLOUDY     4  -7  60 N17       30.22S WCI -16
MISSOULA       LGT SNOW  12   7  80 E10       30.18S WCI  -1
BUTTE          LGT SNOW   7   1  76 S5        30.01R
MULLAN PASS    LGT SNOW   2  -2  83 S12G18    29.89S FOG     WCI -15
ANACONDA         N/A      3   0  85 N3        30.05R
DEER LODGE       N/A      3  -2  78 NW5       30.10R
EUREKA           N/A     -9 -15  77 CALM      30.30S
HAMILTON         N/A     12   9  85 CALM      30.12S
LIBBY            N/A      9   3  78 CALM      30.25S
PLAINS           N/A     14   4  64 N3        30.21S
RONAN            N/A     11   5  76 N8        30.19R WCI  -1
$$

MTZ008-052>055-091200-
SOUTHWEST MONTANA

CITY           SKY/WX    TMP DP  RH WIND       PRES   REMARKS
BOZEMAN        LGT SNOW   4   0  83 NW5       30.14F FOG
DILLON         CLOUDY     4  -1  80 E3        30.05F
W YELLOWSTONE  FLURRIES   7   5  92 NE3       30.02S
ENNIS          CLOUDY     3   0  85 CALM      30.09S
THREE FORKS      N/A      3 -38  13 W5        30.14S
TWIN BRIDGES     N/A      5  -5  63 N7        30.07R WCI  -7
$$

MTZ009-010-012-014-046-048-049-054-091200-
EAST SLOPES AND CENTRAL MONTANA

CITY           SKY/WX    TMP DP  RH WIND       PRES   REMARKS
CUT BANK       CLOUDY    -4  -8  83 E3        30.27F
GREAT FALLS    CLOUDY    -3  -8  79 N3        30.30R
MALMSTROM AFB  FLURRIES  -3  -6  87 N1        30.33S
HELENA         LGT SNOW   1  -6  72 NW6       30.25R WCI -10
AUGUSTA        FLURRIES  -5  -9  84 E2        30.21S
BOWMANS CRNR   FLURRIES  -6 -10  85 NE6       30.20S WCI -19
CHOTEAU          N/A     -4  -8  84 MISG      30.29S
CONRAD           N/A     -3  -7  83 N3        30.28F
FAIRFIELD      FLURRIES  -4  -9  81 SE5       30.27S
POWER          CLOUDY    -5  -9  81 NE1       30.28R
RAYNESFORD     FLURRIES  -4  -8  81 NW3       30.25S
ULM            LGT SNOW  -3  -8  80 SW2       30.30F
$$

MTZ011-013-016-021-045-047-050-051-091200-
NORTH CENTRAL MONTANA

CITY           SKY/WX    TMP DP  RH WIND       PRES   REMARKS
HAVRE          CLOUDY     1  -3  83 NE10      30.43F WCI -15
LEWISTOWN      LGT SNOW  -1  -6  79 SE5       30.22S
N BAR RANCH    CLOUDY    -2  -9  71 E5        30.22S
CHINOOK          N/A      0  -6  78 E8        30.47F WCI -15
DENTON         LGT SNOW  -3  -6  84 MISG      30.27S
GEYSER         FLURRIES  -3  -6  85 E1        30.24S
GRASS RANGE    LGT SNOW  -3  -6  87 E5        30.24F
JUDITH GAP     FLURRIES  -3  -6  85 SW12      30.16S WCI -20
ROY            CLOUDY    -3  -6  86 MISG      30.29F
STANFORD       FLURRIES  -4  -7  87 N5        30.20S
WINIFRED       FLURRIES  -4  -7  86 MISG      30.28F
$$

MTZ017>020-022>027-061-062-091200-
NORTHEAST MONTANA

CITY           SKY/WX    TMP DP  RH WIND       PRES   REMARKS
GLASGOW        CLOUDY    -3  -8  79 E7        30.49S WCI -16
JORDAN           N/A     -8 -13  78 NE6       30.42F WCI -21
SIDNEY         CLOUDY   -17 -22  78 N3        30.55F
WOLF POINT     CLOUDY   -13 -21  67 E3        30.56S
PLENTYWOOD       N/A     -8 -13  77 CALM      30.52S
POPLAR           N/A    -17 -22  76 CALM      30.56F
SCOBEY           N/A     -5 -15  61 CALM      30.43F
$$

MTZ028>42-056>058-091200-
SOUTHCENTRAL AND SOUTHEAST MONTANA

CITY           SKY/WX    TMP DP  RH WIND       PRES   REMARKS
BAKER          CLOUDY    -9 -13  83 E7        30.38F WCI -24
BILLINGS       LGT SNOW   2  -2  83 NE6       30.27S FOG     WCI  -9
LIVINGSTON     LGT SNOW   4  -1  80 E8        30.14F WCI  -9
MILES CITY     CLOUDY    -6 -11  79 N13       30.42R WCI -25
BIG TIMBER     CLOUDY     3   0  85 NE6       30.20F WCI  -8
EKALAKA          N/A     -5 -13  68 SE7       30.22S WCI -19
FORSYTH          N/A     -4  -9  77 E6        30.38F WCI -16
HARLOWTON      FLURRIES   1  -3  85 SE6       30.19F WCI -11
LAUREL           N/A      4  -5  66 NE2       30.21R
ROUNDUP          N/A     -2 -11  65 N5        30.19F
$$

REGIONAL REPORTS...DAKOTAS

CITY           SKY/WX    TMP DP  RH WIND       PRES   REMARKS
WILLISTON      CLOUDY   -17 -22  78 CALM      30.56S
MINOT          CLOUDY    -9 -14  78 W9        30.54S WCI -26
DICKINSON      CLOUDY   -20 -26  74 CALM      30.42F
BEACH          CLOUDY   -18 -22  83 CALM      30.46R
CROSBY           N/A    -13 -18  77 W8        30.57S WCI -30
TIOGA            N/A    -15 -18  84 NW3       30.51F
WATFORD CITY     N/A    -22 -27  76 CALM      30.53F
BISMARCK       CLOUDY   -14 -17  87 CALM      30.56S
GRAND FORKS    CLOUDY     7  -1  70 NW13      30.56F WCI  -9
FARGO          CLOUDY     8   1  73 W7        30.57F WCI  -3
BUFFALO SD       N/A     -8 -12  83 E6        30.27F WCI -21
RAPID CITY     CLOUDY     0  -5  79 NE12      30.30F WCI -17
$$

REGIONAL REPORTS...WYOMING/IDAHO/WASHINGTON

CITY           SKY/WX    TMP DP  RH WIND       PRES   REMARKS
GILLETTE       CLOUDY    -1  -5  82 NW5       30.16R
SHERIDAN       CLOUDY     3  -2  79 N6        30.23R WCI  -8
BUFFALO WY     CLOUDY     1  -5  75 NW14      30.11R WCI -17
YELLOWSTONE LA   N/A      8   6  92 CALM      29.99S
IDAHO FALLS    LGT SNOW  19  15  84 N6        30.13F FOG     WCI  11
SALMON         CLOUDY    10   9  92 CALM      30.13F
BOISE          MOCLDY    25  23  92 CALM      30.14S
SPOKANE        FLURRIES  17  12  80 NE9       30.13S WCI   6
$$

REGIONAL REPORTS...ALBERTA

CITY           SKY/WX    TMP DP  RH WIND       PRES   REMARKS
EDMONTON       PTCLDY   -15 -22  70 E2        30.52R
CALGARY        CRYSTALS  -8 -11  84 S9        30.31F WCI -25
LETHBRIDGE     FLURRIES  -4  -9  77 NE3       30.39F
MEDICINE HAT   FLURRIES  -4  -8  84 NE6       30.50S WCI -16
WATERTON GATE    N/A    -22 -27  76 N2          N/A
CARDSTON         N/A    -11 -18  70 SW3         N/A
MILK RIVER       N/A     -6  -9  84 NE2         N/A
ONEFOUR          N/A     -6  -9  84 E7          N/A  WCI -20
$$

REGIONAL REPORTS...SASKATCHEWAN

CITY           SKY/WX    TMP DP  RH WIND       PRES   REMARKS
SWIFT CURRENT  FLURRIES  -6  -9  84 N7        30.46S WCI -20
REGINA         CLEAR    -17 -20  83 NW5       30.57R
SASKATOON      CRYSTALS -15 -20  76 NW6       30.64R WCI -29
ROCKGLEN         N/A     -6  -9  84 N3          N/A
ASSINIBOIA       N/A     -6 -11  77 SE3         N/A
$$




USA.gov is the U.S. government's official web portal to all federal, state and local government web resources and services.